CP3201 SLET-SLET

Flight info

Callsign CP3201
Flight time 1h 3m
Altitude 3000
Route SLET
Aircraft C210/L-V/N

Departure

Time 2026-04-18 17:57
Airport El Trompillo Airport (SLET)

Arrival

Time 2026-04-18 19:00
Airport El Trompillo Airport (SLET)
Time Latitude Longitude Altitude Speed Heading
2026-04-18 17:35 -17.80176 -63.17611 1375 ft 0 kts 82°
2026-04-18 17:46 -17.80176 -63.17610 1375 ft 0 kts 81°
2026-04-18 17:52 -17.80175 -63.17610 1375 ft 1 kts 81°
2026-04-18 17:52 -17.80189 -63.17610 1375 ft 6 kts 208°
2026-04-18 17:52 -17.80232 -63.17633 1375 ft 11 kts 207°
2026-04-18 17:53 -17.80260 -63.17648 1375 ft 13 kts 206°
2026-04-18 17:53 -17.80358 -63.17693 1375 ft 17 kts 197°
2026-04-18 17:53 -17.80520 -63.17621 1375 ft 46 kts 144°
2026-04-18 17:54 -17.80898 -63.17335 1375 ft 70 kts 144°
2026-04-18 17:54 -17.81240 -63.17074 1375 ft 54 kts 144°
2026-04-18 17:54 -17.81506 -63.16871 1375 ft 42 kts 144°
2026-04-18 17:54 -17.81709 -63.16712 1375 ft 31 kts 140°
2026-04-18 17:55 -17.81782 -63.16660 1375 ft 2 kts 249°
2026-04-18 17:55 -17.81780 -63.16666 1375 ft 3 kts 325°
2026-04-18 17:55 -17.81770 -63.16674 1375 ft 0 kts 322°
2026-04-18 17:56 -17.81769 -63.16675 1375 ft 5 kts 322°
2026-04-18 17:56 -17.80981 -63.17269 1549 ft 110 kts 323°
2026-04-18 17:57 -17.80360 -63.17752 1994 ft 112 kts 323°
2026-04-18 17:57 -17.78878 -63.17908 2851 ft 113 kts 34°
2026-04-18 17:58 -17.78351 -63.16336 3615 ft 126 kts 79°
2026-04-18 17:58 -17.77995 -63.14434 3943 ft 155 kts 78°
2026-04-18 17:59 -17.77487 -63.12567 4187 ft 169 kts 71°
2026-04-18 17:59 -17.77033 -63.11413 4309 ft 174 kts 64°
2026-04-18 17:59 -17.75802 -63.09217 4574 ft 176 kts 56°
2026-04-18 18:00 -17.75141 -63.08155 4796 ft 172 kts 57°
2026-04-18 18:00 -17.73822 -63.06023 5030 ft 179 kts 53°
2026-04-18 18:01 -17.72346 -63.03873 5097 ft 184 kts 52°
2026-04-18 18:01 -17.70846 -63.01656 5109 ft 187 kts 53°
2026-04-18 18:02 -17.69398 -62.99383 5123 ft 187 kts 55°
2026-04-18 18:02 -17.67983 -62.97088 5138 ft 188 kts 55°
2026-04-18 18:02 -17.67277 -62.95940 5147 ft 188 kts 55°
2026-04-18 18:03 -17.65869 -62.93642 5197 ft 184 kts 55°
2026-04-18 18:03 -17.65193 -62.92534 5197 ft 182 kts 55°
2026-04-18 18:04 -17.63783 -62.90260 5202 ft 187 kts 54°
2026-04-18 18:04 -17.63046 -62.89129 5201 ft 188 kts 53°
2026-04-18 18:04 -17.61566 -62.86878 5200 ft 188 kts 53°
2026-04-18 18:05 -17.60064 -62.84598 5066 ft 193 kts 53°
2026-04-18 18:05 -17.59272 -62.83452 5012 ft 192 kts 52°
2026-04-18 18:05 -17.58473 -62.82336 5000 ft 190 kts 51°
2026-04-18 18:06 -17.56947 -62.80172 4991 ft 176 kts 52°
2026-04-18 18:06 -17.56248 -62.79153 4993 ft 171 kts 53°
2026-04-18 18:06 -17.55570 -62.78144 4996 ft 168 kts 53°
2026-04-18 18:07 -17.54907 -62.77154 4996 ft 165 kts 53°
2026-04-18 18:07 -17.54251 -62.76172 4997 ft 162 kts 53°
2026-04-18 18:07 -17.52961 -62.74239 4999 ft 160 kts 53°
2026-04-18 18:08 -17.52321 -62.73280 5000 ft 160 kts 53°
2026-04-18 18:08 -17.51687 -62.72331 5001 ft 161 kts 53°
2026-04-18 18:08 -17.51041 -62.71362 5000 ft 161 kts 54°
2026-04-18 18:08 -17.50410 -62.70390 5001 ft 162 kts 54°
2026-04-18 18:09 -17.49777 -62.69407 5001 ft 163 kts 54°
2026-04-18 18:09 -17.49138 -62.68416 5000 ft 163 kts 54°
2026-04-18 18:09 -17.48508 -62.67416 5001 ft 164 kts 56°
2026-04-18 18:09 -17.47913 -62.66401 5001 ft 165 kts 57°
2026-04-18 18:10 -17.47313 -62.65375 5001 ft 166 kts 57°
2026-04-18 18:10 -17.46688 -62.64350 5000 ft 166 kts 55°
2026-04-18 18:10 -17.46043 -62.63334 5002 ft 168 kts 54°
2026-04-18 18:10 -17.45570 -62.62598 5002 ft 169 kts 54°
2026-04-18 18:11 -17.45101 -62.61872 5006 ft 175 kts 54°
2026-04-18 18:11 -17.44412 -62.60807 5006 ft 179 kts 54°
2026-04-18 18:11 -17.43699 -62.59706 5004 ft 184 kts 54°
2026-04-18 18:11 -17.42973 -62.58588 5003 ft 186 kts 54°
2026-04-18 18:12 -17.42242 -62.57462 5001 ft 187 kts 54°
2026-04-18 18:12 -17.41510 -62.56335 5001 ft 187 kts 54°
2026-04-18 18:12 -17.41082 -62.55679 5000 ft 187 kts 54°
2026-04-18 18:12 -17.40349 -62.54551 5000 ft 188 kts 54°
2026-04-18 18:13 -17.39922 -62.53897 5000 ft 188 kts 54°
2026-04-18 18:13 -17.39182 -62.52788 5000 ft 188 kts 53°
2026-04-18 18:13 -17.38425 -62.51665 5000 ft 188 kts 53°
2026-04-18 18:13 -17.37674 -62.50554 4997 ft 185 kts 53°
2026-04-18 18:14 -17.36941 -62.49470 4997 ft 181 kts 53°
2026-04-18 18:14 -17.36215 -62.48396 4998 ft 179 kts 53°
2026-04-18 18:14 -17.35501 -62.47340 4997 ft 176 kts 53°
2026-04-18 18:14 -17.34801 -62.46304 4997 ft 173 kts 53°
2026-04-18 18:15 -17.34106 -62.45275 4998 ft 172 kts 53°
2026-04-18 18:15 -17.33415 -62.44252 4999 ft 171 kts 53°
2026-04-18 18:15 -17.32735 -62.43244 5000 ft 171 kts 53°
2026-04-18 18:15 -17.32050 -62.42230 5000 ft 171 kts 53°
2026-04-18 18:16 -17.31356 -62.41203 5000 ft 171 kts 53°
2026-04-18 18:16 -17.30899 -62.40527 5000 ft 171 kts 53°
2026-04-18 18:16 -17.29984 -62.39173 5000 ft 171 kts 53°
2026-04-18 18:16 -17.29302 -62.38164 5000 ft 171 kts 53°
2026-04-18 18:17 -17.28617 -62.37151 5000 ft 171 kts 53°
2026-04-18 18:17 -17.28153 -62.36465 5000 ft 171 kts 53°
2026-04-18 18:17 -17.27470 -62.35456 5000 ft 171 kts 53°
2026-04-18 18:17 -17.26783 -62.34441 5000 ft 171 kts 53°
2026-04-18 18:18 -17.26094 -62.33423 5000 ft 171 kts 53°
2026-04-18 18:18 -17.25409 -62.32413 5000 ft 171 kts 53°
2026-04-18 18:18 -17.24722 -62.31401 5000 ft 172 kts 53°
2026-04-18 18:18 -17.24004 -62.30343 4971 ft 182 kts 53°
2026-04-18 18:19 -17.23259 -62.29254 4822 ft 186 kts 53°
2026-04-18 18:19 -17.22499 -62.28156 4670 ft 187 kts 54°
2026-04-18 18:19 -17.21723 -62.27052 4518 ft 187 kts 53°
2026-04-18 18:19 -17.20954 -62.25964 4367 ft 187 kts 53°
2026-04-18 18:20 -17.20185 -62.24877 4217 ft 187 kts 53°
2026-04-18 18:20 -17.19414 -62.23787 4064 ft 180 kts 53°
2026-04-18 18:20 -17.18722 -62.22808 3881 ft 154 kts 53°
2026-04-18 18:20 -17.18127 -62.21966 3704 ft 134 kts 53°
2026-04-18 18:21 -17.17600 -62.21221 3533 ft 122 kts 53°
2026-04-18 18:21 -17.17116 -62.20538 3366 ft 113 kts 53°
2026-04-18 18:21 -17.16661 -62.19895 3197 ft 107 kts 53°
2026-04-18 18:21 -17.16224 -62.19278 3046 ft 101 kts 53°
2026-04-18 18:22 -17.15828 -62.18719 2970 ft 90 kts 53°
2026-04-18 18:22 -17.15490 -62.18241 2935 ft 74 kts 53°
2026-04-18 18:22 -17.15165 -62.17781 3011 ft 90 kts 53°
2026-04-18 18:22 -17.14734 -62.17173 3092 ft 119 kts 53°
2026-04-18 18:23 -17.14575 -62.16949 3085 ft 128 kts 53°
2026-04-18 18:23 -17.13999 -62.16135 3038 ft 149 kts 53°
2026-04-18 18:23 -17.13492 -62.15153 3025 ft 164 kts 81°
2026-04-18 18:23 -17.13566 -62.14538 2779 ft 182 kts 110°
2026-04-18 18:24 -17.14592 -62.13754 2487 ft 191 kts 173°
2026-04-18 18:24 -17.15562 -62.14140 2225 ft 196 kts 227°
2026-04-18 18:24 -17.15680 -62.15602 1288 ft 215 kts 278°
2026-04-18 18:24 -17.15486 -62.17113 1037 ft 203 kts 274°
2026-04-18 18:25 -17.16039 -62.18243 1317 ft 176 kts 207°
2026-04-18 18:25 -17.16823 -62.17570 1430 ft 160 kts 102°
2026-04-18 18:25 -17.16742 -62.16641 1370 ft 128 kts 64°
2026-04-18 18:25 -17.16288 -62.16272 1357 ft 107 kts
2026-04-18 18:26 -17.15843 -62.16565 1174 ft 106 kts 296°
2026-04-18 18:26 -17.15692 -62.17004 1037 ft 104 kts 286°
2026-04-18 18:26 -17.15602 -62.17552 907 ft 97 kts 282°
2026-04-18 18:26 -17.15488 -62.18165 877 ft 80 kts 278°
2026-04-18 18:27 -17.15428 -62.18823 1109 ft 102 kts 274°
2026-04-18 18:27 -17.15421 -62.18996 1180 ft 107 kts 272°
2026-04-18 18:28 -17.15451 -62.19764 1334 ft 132 kts 258°
2026-04-18 18:28 -17.15471 -62.19839 1332 ft 135 kts 252°
2026-04-18 18:28 -17.15637 -62.20154 1352 ft 144 kts 231°
2026-04-18 18:28 -17.16461 -62.20231 1834 ft 137 kts 126°
2026-04-18 18:29 -17.16475 -62.19161 1933 ft 154 kts 83°
2026-04-18 18:29 -17.16290 -62.18097 2420 ft 143 kts 76°
2026-04-18 18:29 -17.15863 -62.17172 2743 ft 151 kts 34°
2026-04-18 18:29 -17.15606 -62.17074 2688 ft 159 kts 10°
2026-04-18 18:30 -17.15171 -62.17150 2493 ft 176 kts 331°
2026-04-18 18:30 -17.14927 -62.17435 2466 ft 153 kts 355°
2026-04-18 18:30 -17.14166 -62.18319 1915 ft 192 kts 284°
2026-04-18 18:30 -17.14683 -62.19579 1215 ft 210 kts 204°
2026-04-18 18:31 -17.15769 -62.18896 906 ft 200 kts 107°
2026-04-18 18:31 -17.15763 -62.17552 1196 ft 159 kts 90°
2026-04-18 18:31 -17.15637 -62.16587 1172 ft 171 kts 59°
2026-04-18 18:31 -17.15614 -62.16550 1177 ft 171 kts 56°
2026-04-18 18:32 -17.14876 -62.16809 1119 ft 173 kts 252°
2026-04-18 18:32 -17.15953 -62.17371 997 ft 176 kts 196°
2026-04-18 18:32 -17.16760 -62.16778 1255 ft 165 kts 76°
2026-04-18 18:32 -17.15839 -62.16811 919 ft 186 kts 312°
2026-04-18 18:33 -17.15955 -62.17756 1131 ft 170 kts 171°
2026-04-18 18:33 -17.16039 -62.16866 911 ft 174 kts 335°
2026-04-18 18:33 -17.15241 -62.17357 1871 ft 49 kts 327°
2026-04-18 18:33 -17.14782 -62.17710 1859 ft 138 kts 319°
2026-04-18 18:34 -17.14563 -62.18610 1901 ft 160 kts 227°
2026-04-18 18:34 -17.15620 -62.18352 1497 ft 180 kts 144°
2026-04-18 18:34 -17.15704 -62.19139 1590 ft 148 kts 313°
2026-04-18 18:34 -17.15570 -62.20037 1909 ft 141 kts 250°
2026-04-18 18:35 -17.16082 -62.20946 1742 ft 143 kts 236°
2026-04-18 18:35 -17.16403 -62.21420 1612 ft 147 kts 232°
2026-04-18 18:35 -17.17255 -62.21999 1657 ft 155 kts 202°
2026-04-18 18:35 -17.18271 -62.22470 1838 ft 154 kts 208°
2026-04-18 18:36 -17.19084 -62.23086 2203 ft 140 kts 221°
2026-04-18 18:36 -17.19755 -62.23823 2474 ft 139 kts 230°
2026-04-18 18:36 -17.20352 -62.24606 2753 ft 137 kts 232°
2026-04-18 18:36 -17.20923 -62.25393 3015 ft 138 kts 235°
2026-04-18 18:37 -17.21453 -62.26259 3213 ft 142 kts 238°
2026-04-18 18:37 -17.21976 -62.27169 3494 ft 150 kts 239°
2026-04-18 18:37 -17.22535 -62.28127 3727 ft 157 kts 238°
2026-04-18 18:37 -17.23121 -62.29117 3954 ft 163 kts 238°
2026-04-18 18:38 -17.23721 -62.30135 4116 ft 168 kts 239°
2026-04-18 18:38 -17.24194 -62.31279 4294 ft 170 kts 250°
2026-04-18 18:38 -17.24614 -62.32441 4461 ft 172 kts 245°
2026-04-18 18:38 -17.25284 -62.33468 4641 ft 173 kts 231°
2026-04-18 18:39 -17.26072 -62.34437 4810 ft 174 kts 229°
2026-04-18 18:39 -17.26879 -62.35382 4942 ft 177 kts 229°
2026-04-18 18:39 -17.27672 -62.36388 4996 ft 182 kts 232°
2026-04-18 18:39 -17.28462 -62.37458 5003 ft 186 kts 234°
2026-04-18 18:40 -17.29245 -62.38549 5002 ft 189 kts 234°
2026-04-18 18:40 -17.30032 -62.39659 5001 ft 189 kts 235°
2026-04-18 18:40 -17.30787 -62.40775 5001 ft 190 kts 236°
2026-04-18 18:40 -17.31549 -62.41919 5000 ft 189 kts 236°
2026-04-18 18:41 -17.32279 -62.43017 4994 ft 182 kts 236°
2026-04-18 18:41 -17.32992 -62.44114 4996 ft 179 kts 237°
2026-04-18 18:41 -17.33688 -62.45199 4998 ft 178 kts 238°
2026-04-18 18:41 -17.34354 -62.46273 4999 ft 177 kts 239°
2026-04-18 18:42 -17.35009 -62.47364 5000 ft 177 kts 239°
2026-04-18 18:42 -17.35662 -62.48461 5000 ft 177 kts 239°
2026-04-18 18:42 -17.36312 -62.49554 5000 ft 177 kts 239°
2026-04-18 18:42 -17.36964 -62.50651 5000 ft 177 kts 239°
2026-04-18 18:43 -17.38262 -62.52835 5000 ft 177 kts 239°
2026-04-18 18:43 -17.38910 -62.53924 5000 ft 177 kts 239°
2026-04-18 18:43 -17.39562 -62.55021 5001 ft 177 kts 239°
2026-04-18 18:44 -17.40217 -62.56121 5001 ft 178 kts 239°
2026-04-18 18:44 -17.40875 -62.57225 5000 ft 178 kts 239°
2026-04-18 18:44 -17.41532 -62.58325 5000 ft 178 kts 239°
2026-04-18 18:44 -17.42201 -62.59416 4999 ft 178 kts 238°
2026-04-18 18:45 -17.42865 -62.60489 5000 ft 177 kts 238°
2026-04-18 18:45 -17.43537 -62.61574 5000 ft 177 kts 238°
2026-04-18 18:45 -17.44210 -62.62659 5000 ft 177 kts 238°
2026-04-18 18:45 -17.44878 -62.63736 5000 ft 177 kts 238°
2026-04-18 18:46 -17.45549 -62.64818 5000 ft 177 kts 238°
2026-04-18 18:46 -17.46226 -62.65908 5000 ft 177 kts 238°
2026-04-18 18:46 -17.46902 -62.66987 5000 ft 177 kts 237°
2026-04-18 18:46 -17.47598 -62.68044 5000 ft 176 kts 236°
2026-04-18 18:47 -17.48298 -62.69095 5000 ft 176 kts 237°
2026-04-18 18:47 -17.48990 -62.70156 5000 ft 176 kts 237°
2026-04-18 18:47 -17.49679 -62.71223 5000 ft 176 kts 237°
2026-04-18 18:47 -17.50355 -62.72270 5000 ft 176 kts 237°
2026-04-18 18:48 -17.51043 -62.73337 5000 ft 176 kts 237°
2026-04-18 18:48 -17.51727 -62.74397 5000 ft 176 kts 237°
2026-04-18 18:48 -17.52415 -62.75465 5000 ft 175 kts 237°
2026-04-18 18:48 -17.53085 -62.76518 4999 ft 175 kts 238°
2026-04-18 18:49 -17.53749 -62.77582 5000 ft 174 kts 238°
2026-04-18 18:49 -17.54193 -62.78295 5000 ft 174 kts 238°
2026-04-18 18:49 -17.54855 -62.79359 5000 ft 174 kts 238°
2026-04-18 18:49 -17.55532 -62.80420 5000 ft 174 kts 237°
2026-04-18 18:50 -17.56206 -62.81466 5000 ft 174 kts 237°
2026-04-18 18:50 -17.56887 -62.82521 5000 ft 174 kts 237°
2026-04-18 18:50 -17.57570 -62.83577 5000 ft 174 kts 237°
2026-04-18 18:50 -17.58241 -62.84615 5000 ft 174 kts 237°
2026-04-18 18:51 -17.58921 -62.85668 5000 ft 174 kts 237°
2026-04-18 18:51 -17.59607 -62.86732 5000 ft 174 kts 237°
2026-04-18 18:51 -17.60279 -62.87774 5000 ft 174 kts 237°
2026-04-18 18:51 -17.60962 -62.88833 5000 ft 174 kts 237°
2026-04-18 18:52 -17.61633 -62.89876 5000 ft 174 kts 237°
2026-04-18 18:52 -17.62318 -62.90939 5000 ft 174 kts 237°
2026-04-18 18:52 -17.62990 -62.91983 5000 ft 174 kts 237°
2026-04-18 18:52 -17.63673 -62.93046 5000 ft 174 kts 237°
2026-04-18 18:53 -17.64347 -62.94094 5000 ft 174 kts 237°
2026-04-18 18:53 -17.65021 -62.95143 5000 ft 174 kts 237°
2026-04-18 18:53 -17.65706 -62.96209 5000 ft 174 kts 237°
2026-04-18 18:53 -17.66379 -62.97256 5000 ft 174 kts 237°
2026-04-18 18:54 -17.67062 -62.98318 5000 ft 174 kts 237°
2026-04-18 18:54 -17.67736 -62.99366 5000 ft 174 kts 237°
2026-04-18 18:54 -17.68415 -63.00422 5000 ft 174 kts 237°
2026-04-18 18:54 -17.69090 -63.01472 5000 ft 174 kts 237°
2026-04-18 18:55 -17.69766 -63.02524 5000 ft 174 kts 237°
2026-04-18 18:55 -17.70101 -63.03043 5000 ft 174 kts 237°
2026-04-18 18:55 -17.70732 -63.04023 5000 ft 174 kts 237°
2026-04-18 18:55 -17.71407 -63.05072 5000 ft 174 kts 237°
2026-04-18 18:56 -17.72093 -63.06134 5000 ft 174 kts 237°
2026-04-18 18:56 -17.72773 -63.07184 5000 ft 174 kts 237°
2026-04-18 18:56 -17.73453 -63.08236 5000 ft 174 kts 237°
2026-04-18 18:56 -17.74131 -63.09283 5000 ft 174 kts 237°
2026-04-18 18:57 -17.74814 -63.10338 5000 ft 174 kts 237°
2026-04-18 18:57 -17.75778 -63.11171 4653 ft 187 kts 207°
2026-04-18 18:57 -17.76993 -63.11628 4001 ft 186 kts 197°
2026-04-18 18:57 -17.78225 -63.12010 3461 ft 177 kts 197°
2026-04-18 18:58 -17.79339 -63.12451 2940 ft 166 kts 203°
2026-04-18 18:58 -17.80365 -63.12980 2452 ft 161 kts 208°
2026-04-18 18:58 -17.81268 -63.13486 2337 ft 138 kts 208°
2026-04-18 18:58 -17.82041 -63.13972 2154 ft 121 kts 215°
2026-04-18 18:59 -17.82633 -63.14542 2046 ft 110 kts 231°
2026-04-18 18:59 -17.82906 -63.15250 1931 ft 105 kts 267°
2026-04-18 18:59 -17.82667 -63.15963 1697 ft 107 kts 310°
2026-04-18 18:59 -17.82080 -63.16444 1469 ft 104 kts 324°
2026-04-18 19:00 -17.81533 -63.16851 1376 ft 87 kts 324°
2026-04-18 19:00 -17.81110 -63.17170 1375 ft 63 kts 324°
2026-04-18 19:00 -17.80788 -63.17415 1375 ft 55 kts 324°
2026-04-18 19:00 -17.80490 -63.17641 1375 ft 47 kts 324°
2026-04-18 19:01 -17.80320 -63.17677 1375 ft 20 kts 13°
2026-04-18 19:01 -17.80205 -63.17621 1375 ft 5 kts 53°
2026-04-18 19:01 -17.80205 -63.17620 1375 ft 0 kts 52°